Regional Weather Roundup
Issued by NWS

Home | Current Version | Previous Version | Text Only | Print | Product List | Glossary On
Versions: 1 2 3 4 5 6 7 8 9 10 11 12 13 14 15 16 17 18 19 20 21 22 23 24 25 26 27 28 29 30 31 32 33 34 35 36 37 38 39 40 41 42 43 44 45 46 47 48 49 50
000
ASUS43 KDTX 210110
RWRMI
MICHIGAN HOURLY REGIONAL WEATHER ROUNDUP
NATIONAL WEATHER SERVICE DETROIT/PONTIAC MI
800 PM EST MON NOV 20 2017

NOTE: "FAIR" INDICATES FEW OR NO CLOUDS BELOW 12,000 FEET WITH NO
SIGNIFICANT WEATHER AND/OR OBSTRUCTION TO VISIBILITY.

MIZ047>049-052>055-059>063-066>070-074>076-081>083-210200-
SOUTHEAST LOWER MICHIGAN

CITY           SKY/WX    TMP DP  RH WIND       PRES   REMARKS
ADRIAN         CLEAR     41  27  57 SW20G28   29.88F
ALMA           CLOUDY    44  31  62 S17G23    29.71F
ANN ARBOR      CLEAR     41  28  60 S15G25    29.85F
BAD AXE        CLOUDY    40  30  67 S15       29.73F WCI  31
CARO           CLOUDY    43  30  60 S14G20    29.73F
DETROIT CITY   CLEAR    N/A N/A N/A SW18G26   29.86F
DETROIT        CLOUDY    42  29  59 S20       29.88S
FLINT          CLOUDY    43  28  55 S15G23    29.77F
GROSSE ILE     CLOUDY    42  31  64 SW17G23   29.88S
HILLSDALE      CLEAR     39  27  60 S13G24    29.83F WCI  32
HOWELL         CLOUDY    42  29  59 S13G20    29.79F

CITY           SKY/WX    TMP DP  RH WIND       PRES   REMARKS
JACKSON        CLEAR     43  27  53 S15G24    29.81F
LAMBERTVILLE   CLEAR     43  28  55 SW13G18   29.90S
LANSING        CLOUDY    45  29  53 SW21G35   29.77F
LAPEER         FAIR      43  29  57 SW16G23   29.77F
MASON          CLOUDY    44  29  55 S8        29.78F
MONROE         CLOUDY    43  27  54 S14G22    29.88F
MT. CLEMENS    PTCLDY    43  31  62 S15G23    29.82F
PONTIAC        MOCLDY    42  29  59 S13G25    29.81F
PORT HOPE        N/A     42  29  59 S9        29.70F
PORT HURON     CLEAR     41  30  65 S17G24    29.83F
TRI CITIES     CLEAR     45  31  58 S15       29.71F
MIDLAND        FAIR      43  31  63 S14       29.69F
TROY           CLEAR     45  28  51 S13G21    29.85F
SAGINAW HB     CLOUDY    43  32  65 S20       29.71F
$$
MIZ043>046-050>051-056>058-064>065-071>073-077>080-210200-
SOUTHWEST LOWER MICHIGAN

CITY           SKY/WX    TMP DP  RH WIND       PRES   REMARKS
BATTLE CREEK   CLEAR     44  29  55 S20G31    29.78F
BENTON HARBOR  CLEAR     46  29  51 S18G29    29.76F
BIG RAPIDS     CLOUDY    43  30  60 SW9       29.66S
COLDWATER      CLEAR     42  25  51 S13G24    29.82F
FREMONT        FAIR      47  37  69 SW21G30   29.67F
HOLLAND        CLEAR     48  31  51 SW22G37   29.73S
GRAND RAPIDS   MOCLDY    46  31  55 S17G28    29.73S
IONIA          FAIR      45  30  56 S17G25    29.72F
KALAMAZOO      CLEAR     45  26  47 S20G32    29.79F
LUDINGTON      CLOUDY    47  38  69 S17G32    29.62S
MARSHALL       CLEAR     43  27  52 S9G18     29.79F
MOUNT PLEASANT CLOUDY    42  30  62 S6        29.68F
MUSKEGON       CLOUDY    50  37  61 S23G45    29.70R
SOUTH HAVEN    CLEAR     48  29  48 SW14G29   29.76R
$$
MIZ016>042-210200-
NORTHERN LOWER MICHIGAN

CITY           SKY/WX    TMP DP  RH WIND       PRES   REMARKS
ALPENA         PTCLDY    39  31  72 S8        29.63F WCI  33
BEAVER ISLAND  CLEAR     44  35  71 S9G18     29.52F
BELLAIRE       PTCLDY    43  36  76 S9        29.59F
CADILLAC       CLOUDY    40  33  75 SW15      29.61F WCI  32
CHARLEVOIX     PTCLDY    43  33  69 S9        29.58F
FRANKFORT      CLOUDY    48  36  62 S20G30    29.57F
GAYLORD        CLOUDY    39  31  72 SW15G28   29.58F WCI  31
GRAYLING       CLOUDY    39  30  69 S9        29.62F WCI  33
HARBOR SPRINGS PTCLDY    42  34  73 SW8       29.56F
MANISTEE       CLOUDY    46  36  68 S13G18    29.60F
OSCODA         PTCLDY    40  31  68 S9        29.67F WCI  34
PELLSTON       PTCLDY    30  28  92 E3        29.56F
ROGERS CITY    MOCLDY    39  32  75 S13       29.60F WCI  32
TRAVERSE CITY  MOCLDY    45  33  63 SW12G24   29.57F
$$
MIZ007>008-015-210200-
EASTERN UPPER MICHIGAN

CITY           SKY/WX    TMP DP  RH WIND       PRES   REMARKS
KINROSS        CLEAR     35  33  92 SE9       29.54F WCI  28
MACKINAC ISLAN CLOUDY    41  33  73 S9G18     29.55F
NEWBERRY       CLOUDY    35  34  96 SE6       29.49F WCI  30
S. S. MARIE    CLOUDY    36  32  85 E9        29.54F WCI  29
MUNISING         N/A     41  37  86 S13G25    29.40F
$$
MIZ004>006-011>014-085-210200-
CENTRAL UPPER MICHIGAN

CITY           SKY/WX    TMP DP  RH WIND       PRES   REMARKS
MANISTIQUE     PTCLDY    44  37  76 S15G28    29.47F
ESCANABA       CLOUDY    43  37  79 S13G21    29.44F
MENOMINEE      CLOUDY    43  34  70 SW14G21   29.46F
SAWYER-GWINN   CLEAR     34  32  93 S14       29.40F WCI  24
$$
MIZ001>003-009>011-084-210200-
WESTERN UPPER MICHIGAN

CITY           SKY/WX    TMP DP  RH WIND       PRES   REMARKS
IRON MOUNTAIN  PTCLDY    37  28  70 S8        29.39F WCI  31
HOUGHTON       CLOUDY    34  27  75 S7        29.29F WCI  28
COPPER HARBOR    N/A     40  30  67 SW16G25   29.28F WCI  31
IRONWOOD       CLOUDY    41  29  62 SW17G32   29.30F
$$

ABBREVIATIONS USED IN REMARKS
   TC - TEMPERATURE IN CELSIUS
  WCI - WIND CHILL INDEX
   HX - HEAT INDEX
  VSB - VISIBILITY





USA.gov is the U.S. government's official web portal to all federal, state and local government web resources and services.